Location: Kutna Hora
(49.9500°N, 15.2670°E)
Time: 23:23:01
(UTC+02:00)

ISS - Pass Details

Date: 25 May 2019
Orbit: 408 x 419 km, 51.6° (Epoch: 21 June)

Event Time Altitude Azimuth Distance (km) Brightness Sun altitude
Rises 23:20:59 0° 285° (WNW) 2,360 0.6 -16.0°
Reaches altitude 10° 23:23:04 10° 286° (WNW) 1,497 -0.4 -16.1°
Maximum altitude 23:26:26 83° 12° (NNE) 426 -3.8 -16.3°
Enters shadow 23:28:13 26° 101° (ESE) 867 -2.5 -16.4°
